Find Starlink 11477

NORAD ID: 62471 Int'l Des: 2024-254 Owner: SPXS Country: US Constellation: starlink operational
又名: STARLINK-11477 [DTC] celestrak
LEOCIRCULAR

当前视图

正在加载3D地球...

About Starlink 11477

Starlink 11477 (NORAD 62471) is a starlink constellation satellite (v2 mini d2c) launched Dec 31, 2024 by SPXS of US. It operates in LEO, CIRCULAR orbit with a mass of 960.00 kg.

即将过境

Passes for default location (London). Set your location on the main map for personalized predictions.

高度历史

Loading altitude history...

两行轨道根数

1 62471U 24254K 26264.08136819 .00128814 00000-0 98652-3 0 9990
2 62471 43.0018 125.0105 0003417 252.8950 107.1543 15.70964945100123
Epoch: Sep 21, 2026 • Age: 25 hours

当前状态

高度 357.8 km
远地点 / 近地点 N/A
速度 7.70 km/s
星下点 32.24°N, 148.16°W
发射日期 Dec 31, 2024
运行时间 1.7 years
类型 internet

技术详情

分类 Payload
质量 960.00 kg
干质量 910.00 kg
长度 0.30 m
跨度 29.00 m
形状 ? Box + pan
制造商 SPXS
平台类型 Starlink V2MD
阶段状态 In Orbit
所有者/国家 SPXS/US

Most Searched